This is the latest recevied weather packets stored in our database for station/object K1RFS. If no packets are shown the sender has not sent any weather packets the latest 10 day(s).
| Time | Temp. | Humidity | Pressure | Rain* | Wind** | Luminosity | Snow |
|---|---|---|---|---|---|---|---|
| 1777922993 | 21.11° C | 29% | 993.8 hPa | 0 mm | - | 128 W/m² | - |
| 1777922689 | 21.11° C | 29% | 993.8 hPa | 0 mm | - | 141 W/m² | - |
| 1777922389 | 21.11° C | 29% | 994 hPa | 0 mm | - | 140 W/m² | - |
| 1777922086 | 21.11° C | 29% | 993.8 hPa | 0 mm | - | 137 W/m² | - |
| 1777921781 | 21.11° C | 29% | 994 hPa | 0 mm | - | 149 W/m² | - |
| 1777921477 | 21.11° C | 29% | 994 hPa | 0 mm | - | 151 W/m² | - |
| 1777921174 | 21.67° C | 29% | 994.2 hPa | 0 mm | - | 154 W/m² | - |
| 1777920872 | 21.67° C | 29% | 994.2 hPa | 0 mm | - | 167 W/m² | - |
| 1777920567 | 21.67° C | 29% | 994.1 hPa | 0 mm | - | 189 W/m² | - |
| 1777920263 | 21.67° C | 29% | 994.4 hPa | 0 mm | - | 227 W/m² | - |
| 1777919959 | 21.67° C | 29% | 994.3 hPa | 0 mm | - | 270 W/m² | - |
| 1777919657 | 21.67° C | 29% | 994.3 hPa | 0 mm | - | 288 W/m² | - |
| 1777919355 | 21.67° C | 30% | 994.3 hPa | 0 mm | - | 302 W/m² | - |
| 1777919051 | 21.11° C | 30% | 994.4 hPa | 0 mm | - | 302 W/m² | - |
| 1777918748 | 21.11° C | 30% | 994.5 hPa | 0 mm | - | 285 W/m² | - |
| 1777918445 | 21.11° C | 31% | 994.5 hPa | 0 mm | - | 268 W/m² | - |
| 1777918144 | 20.56° C | 31% | 994.5 hPa | 0 mm | - | 238 W/m² | - |
| 1777917842 | 21.11° C | 31% | 994.4 hPa | 0 mm | - | 217 W/m² | - |
| 1777917540 | 20.56° C | 31% | 994.6 hPa | 0 mm | - | 218 W/m² | - |
| 1777917236 | 21.11° C | 31% | 994.6 hPa | 0 mm | - | 218 W/m² | - |
| 1777916935 | 21.11° C | 31% | 994.6 hPa | 0 mm | - | 303 W/m² | - |
| 1777916632 | 21.67° C | 31% | 994.8 hPa | 0 mm | - | 348 W/m² | - |
| 1777916329 | 21.67° C | 30% | 994.9 hPa | 0 mm | - | 659 W/m² | - |
| 1777916025 | 21.67° C | 31% | 994.9 hPa | 0 mm | - | 116 W/m² | - |
| 1777915723 | 20.56° C | 32% | 994.9 hPa | 0 mm | - | 85 W/m² | - |
* Rain latest hour (hover to see other rain measurements)
** Current wind speed in m/s (hover to see current wind gust speed)